Temperature
27 27 26 26 27 27 27 27 27 27 26 25 25 24 24 24 24 24 23 22 22 21 20 20 19 19 19 18 18 18 18 17 17 17 17 17 17 17 17 17 17 17 17 17
25 27 26 26 27 27 27 28 27 26 25 25 24 23 23 23 23 23 22 21 21 20 20 20 19 19 19 18 18 18 18 18 17 17 17 17 17 17 17 17 17 16 16 16
24 26 26 25 26 27 27 27 27 25 24 24 23 22 22 22 22 22 21 21 20 20 19 19 19 18 18 18 18 18 18 17 17 17 17 17 17 17 17 17 17 16 16 16
24 24 23 25 27 27 26 26 26 25 24 23 22 21 20 20 20 20 20 20 19 19 19 18 18 18 18 18 18 17 17 17 17 17 17 17 17 17 17 16 16 16 16 16
23 23 23 24 25 25 25 24 24 23 23 22 21 20 19 19 19 19 18 18 18 18 18 18 18 18 18 17 17 17 17 17 17 17 17 17 17 17 16 16 16 16 16 16
22 22 22 22 24 24 24 22 22 22 21 21 21 20 19 18 18 18 17 17 17 17 18 17 17 17 17 17 17 17 17 17 16 16 16 16 16 16 16 16 16 16 16 16
22 22 22 22 23 24 22 20 20 20 20 20 20 19 17 17 16 16 16 16 16 16 17 16 17 17 17 16 16 16 16 16 16 16 16 16 16 16 16 15 15 15 15 15
21 21 20 21 22 21 19 19 19 19 18 18 18 17 16 15 15 15 15 15 15 15 15 15 16 16 15 15 15 16 16 16 16 15 15 15 15 15 15 15 15 15 15 14
20 19 19 19 19 18 18 18 18 17 17 17 16 16 15 14 14 14 14 14 14 15 15 15 14 14 14 14 14 15 15 15 15 15 15 15 15 15 15 15 14 14 14 14
19 19 18 18 18 17 17 17 16 16 16 16 15 15 14 14 14 13 13 13 14 14 14 14 14 14 14 13 14 14 14 14 14 14 14 14 14 14 14 14 14 14 13 13
18 18 18 17 16 16 16 16 15 15 15 15 14 14 13 13 13 13 13 13 13 13 13 13 13 13 13 13 13 13 13 14 14 13 13 13 13 13 13 13 13 13 13 12
17 17 17 15 15 15 15 14 14 14 14 14 13 13 13 13 12 12 12 12 12 12 12 12 12 12 12 13 13 13 13 13 13 13 13 13 13 13 12 12 12 12 12 12
17 16 15 14 14 14 14 13 13 13 13 13 13 12 12 12 12 12 12 12 12 12 12 12 12 12 12 12 12 13 13 13 13 13 13 12 12 12 12 12 11 11 11 11
15 15 15 14 13 13 13 13 13 13 12 12 12 12 12 12 12 12 12 11 11 11 11 11 11 11 12 12 12 12 12 12 12 12 12 12 12 12 12 11 11 11 10 10
15 15 14 13 13 13 13 13 12 12 12 12 12 12 12 12 11 11 11 11 11 11 11 11 11 11 11 11 12 12 12 12 12 12 12 12 12 12 11 11 11 10 10 9
14 14 13 13 13 13 13 13 12 12 12 12 12 12 11 11 11 11 11 11 11 10 10 10 10 11 11 11 11 11 11 12 12 12 12 12 11 11 11 11 10 10 9 9
14 14 13 13 13 13 13 13 12 12 12 12 11 11 11 11 11 11 11 10 10 10 10 10 10 10 10 11 11 11 11 11 11 11 11 11 11 10 10 10 10 9 9 9
14 14 14 14 13 13 13 12 12 12 12 12 12 11 11 11 11 10 10 10 10 10 10 10 10 10 10 10 10 10 11 11 10 10 10 10 10 10 9 9 9 9 8 8
14 14 14 13 13 13 13 12 12 12 12 12 12 11 11 11 10 10 10 10 9 9 9 9 9 9 9 10 10 10 10 10 10 9 9 9 9 9 8 8 8 8 7 7
14 13 13 13 13 13 12 12 12 12 12 11 11 11 11 10 10 10 10 9 9 9 9 9 8 9 9 9 9 9 9 9 9 9 8 8 8 8 8 7 7 7 7 7
13 13 13 12 12 12 12 12 12 12 11 11 11 11 10 10 10 10 9 9 8 8 8 8 8 8 8 8 9 9 9 8 8 8 8 7 7 7 7 7 6 6 6 6
12 12 12 12 12 11 11 11 11 11 11 11 10 10 10 10 9 9 9 8 8 8 8 8 7 8 8 8 8 8 8 8 7 7 7 7 6 6 6 6 6 5 5 5
11 11 11 11 11 11 11 11 11 10 10 10 10 10 9 9 9 9 8 8 7 7 7 7 7 7 7 7 7 7 7 7 6 6 6 6 6 5 5 5 5 5 4 4
11 11 11 11 10 10 10 10 10 10 10 9 9 9 9 9 8 8 7 7 7 7 7 6 6 6 6 6 6 6 6 6 6 5 5 5 5 5 5 4 4 4 4 3
10 10 10 10 10 10 10 9 9 9 9 9 9 8 8 8 8 7 7 7 6 6 6 6 6 6 6 5 5 5 5 5 5 5 4 4 4 4 4 4 4 3 3 3
10 10 10 10 10 10 10 10 9 9 9 9 8 8 8 7 7 7 6 6 6 6 6 5 5 5 5 5 5 5 4 4 4 4 4 4 4 4 3 3 3 3 3 3
10 9 9 9 9 9 9 9 9 9 8 8 8 7 7 7 6 6 6 6 5 5 5 5 5 5 5 4 4 4 4 4 4 3 3 3 3 3 3 3 3 3 2 2
Wind_Speed
11 7 9 13 13 12 12 13 13 8 4 1 2 3 3 3 3 4 4 6 5 6 6 7 8 7 7 7 6 6 7 8 8 7 7 6 6 6 6 5 6 6 5 5
12 11 12 15 14 13 15 13 11 7 3 0 2 3 3 3 2 4 4 5 5 5 5 6 7 7 7 6 7 6 6 6 6 7 7 7 6 6 6 6 5 6 6 5
11 12 12 13 12 12 10 9 8 7 3 3 2 4 3 3 4 4 3 4 5 5 4 4 5 5 6 7 7 7 6 6 6 6 6 6 7 7 7 6 6 5 5 5
9 8 11 7 3 4 4 3 2 1 3 5 4 4 4 5 5 4 4 5 5 5 5 4 4 5 5 7 7 7 6 6 5 6 6 6 6 6 6 5 5 5 4 4
7 9 8 6 4 3 3 2 3 4 4 4 5 5 4 7 7 7 6 6 6 5 5 5 4 5 6 6 6 6 6 5 5 5 5 5 5 5 5 5 5 5 4 4
7 7 6 3 5 4 3 2 6 6 3 2 2 1 2 6 8 9 8 7 7 7 8 7 6 6 7 6 6 5 5 5 5 5 5 4 4 4 4 4 4 4 4 4
10 8 3 4 7 4 4 1 4 4 3 3 3 4 5 8 10 10 9 9 9 10 10 9 8 9 9 8 7 6 6 7 6 5 5 4 4 3 2 2 3 3 3 3
6 6 2 8 6 4 4 4 4 4 3 5 7 9 11 11 11 11 11 11 11 11 11 10 10 11 11 10 8 8 8 9 8 7 6 5 5 4 3 2 2 2 3 3
1 1 5 6 5 4 4 4 4 4 4 7 9 11 12 12 12 12 12 11 10 12 12 12 11 11 12 10 9 10 10 9 9 8 8 7 6 5 4 3 2 2 2 3
2 4 6 6 7 7 6 5 5 5 7 10 12 13 14 12 11 11 11 11 10 12 13 12 11 11 10 9 9 10 10 9 8 9 8 9 8 7 7 6 6 6 5 5
1 3 5 7 8 7 7 8 9 9 11 12 15 15 14 12 11 10 10 10 11 12 12 12 10 10 10 9 8 9 8 7 7 7 7 8 8 8 8 7 6 6 5 6
2 3 4 5 7 7 10 11 11 13 13 13 14 15 15 13 11 11 11 11 12 12 12 12 12 11 9 8 8 7 7 6 5 5 5 5 6 7 12 9 11 12 10 8
5 8 9 8 8 9 11 13 13 14 15 14 14 15 15 13 12 12 13 12 12 12 12 12 12 11 9 8 7 7 7 6 5 5 5 5 4 5 5 5 7 8 9 9
10 10 10 9 9 11 13 14 15 15 14 14 14 14 14 13 13 13 12 11 11 12 12 12 12 11 9 8 7 6 6 6 5 4 4 4 4 3 3 4 3 3 3 3
10 11 12 12 12 12 12 13 15 15 15 14 13 13 14 14 13 12 11 11 12 12 12 11 11 10 8 9 9 8 7 6 5 4 4 5 5 4 5 5 4 4 4 2
12 13 14 14 13 12 12 13 14 14 14 14 14 13 13 12 12 12 11 11 12 12 10 10 9 9 8 8 6 5 5 6 5 4 5 5 5 5 5 5 5 5 5 5
11 12 13 14 13 13 12 12 12 13 13 14 13 13 13 12 12 11 11 12 11 10 10 9 9 8 9 9 8 5 5 5 4 6 7 7 6 6 6 6 5 5 5 6
9 10 12 13 13 13 13 12 12 13 13 13 13 12 11 11 11 10 10 10 11 11 10 10 9 7 9 10 8 6 6 6 7 7 7 7 6 6 6 6 6 6 4 4
12 13 13 13 13 13 13 13 13 13 12 11 11 11 10 10 9 9 10 10 10 10 9 9 9 8 9 11 9 5 6 7 6 6 6 6 6 7 7 7 6 6 6 5
12 13 14 14 13 13 12 12 12 11 11 11 11 11 11 10 10 10 11 11 9 7 7 7 8 8 9 9 10 6 6 7 6 6 6 6 7 6 6 6 7 7 7 7
12 12 13 13 12 12 12 12 11 11 10 11 11 11 10 10 9 9 8 9 8 7 6 7 7 7 7 8 7 5 6 6 6 6 6 6 6 6 6 6 7 7 7 7
11 12 13 13 13 12 10 10 11 11 10 10 10 10 9 9 9 9 9 7 7 6 5 7 7 8 10 10 5 6 7 6 6 6 6 6 6 6 6 6 6 6 6 6
10 11 12 12 12 11 11 10 11 10 9 9 9 8 8 7 6 6 7 6 6 6 6 7 7 9 12 6 6 7 7 7 6 6 6 6 6 6 6 6 6 6 6 6
10 10 11 11 11 11 10 10 10 9 9 9 9 8 7 6 6 7 7 8 7 6 6 6 6 8 8 4 6 6 6 6 6 6 6 6 6 6 6 6 6 6 7 8
10 10 10 11 11 9 10 10 10 9 8 8 8 8 7 6 6 6 6 7 6 4 5 5 3 5 5 6 6 6 6 7 7 6 6 6 6 6 6 6 6 6 6 7
9 9 8 8 7 7 7 7 7 6 7 7 7 7 6 6 7 5 4 5 6 5 4 4 4 3 4 5 6 7 6 5 6 6 6 6 6 6 5 5 7 6 6 6
9 8 7 7 7 6 6 6 7 7 7 6 6 6 6 5 5 5 5 4 4 4 4 4 4 4 5 5 5 5 5 5 5 5 5 4 4 4 5 5 5 6 6 6
Wind_Direction
268 258 260 271 273 274 270 269 275 282 285 305 90 79 93 96 113 121 120 128 130 140 144 148 148 149 158 160 158 160 161 167 171 173 175 179 178 179 177 181 187 176 179 182
276 269 259 262 260 259 261 264 270 274 277 118 59 66 89 91 125 116 108 112 113 112 123 137 147 157 157 158 155 150 156 163 163 168 173 179 177 176 174 177 180 178 182 186
267 276 275 261 260 259 264 273 271 273 271 124 79 52 66 70 82 87 94 105 107 108 109 123 137 144 152 154 153 154 160 165 165 169 172 175 180 173 178 180 183 186 186 186
268 277 264 270 295 284 266 289 319 64 94 104 102 76 63 59 65 72 64 83 90 90 98 105 123 137 146 156 156 158 162 164 160 164 168 167 169 176 178 178 183 185 185 189
263 264 268 284 323 323 292 326 39 80 96 107 117 107 68 61 59 67 63 70 81 89 95 97 106 134 139 143 146 148 152 151 154 161 163 160 166 174 174 170 174 178 178 184
248 257 261 354 358 344 288 220 62 74 82 97 123 97 84 74 71 72 73 73 70 76 77 78 84 109 115 118 118 120 128 135 141 143 144 150 159 159 161 170 179 177 176 174
248 254 251 8 340 318 269 89 46 53 60 60 60 88 94 82 76 74 73 75 75 73 70 63 65 77 83 81 80 85 89 87 86 97 106 105 107 106 124 156 172 170 158 147
245 245 252 5 358 19 41 44 63 58 59 76 90 99 100 93 84 79 76 75 76 76 74 65 65 72 73 66 62 68 76 78 73 68 74 79 81 86 91 95 155 164 150 131
13 79 67 45 51 53 53 64 74 88 99 109 110 109 105 100 92 86 81 76 77 78 78 71 68 72 74 65 63 67 69 70 71 66 58 54 60 62 61 52 49 80 92 93
51 88 78 65 58 51 54 68 76 92 111 115 110 105 105 100 94 89 84 81 81 81 79 75 72 73 74 71 71 72 70 67 69 67 63 56 51 51 49 42 37 41 42 47
123 104 84 63 58 54 69 84 90 93 100 109 108 104 102 97 91 91 90 86 84 83 82 78 74 73 72 70 73 79 74 70 78 78 75 73 68 56 62 55 54 59 52 52
113 107 96 83 68 71 88 92 95 99 98 99 104 107 102 96 91 88 86 85 83 81 81 79 74 69 65 65 64 69 73 64 74 81 81 86 96 82 55 67 68 68 67 71
105 102 97 96 87 85 93 97 96 96 100 102 101 102 101 97 91 87 82 79 80 80 77 76 74 69 62 61 60 64 68 58 54 60 69 79 82 96 101 78 65 63 66 68
111 110 107 104 100 96 98 100 100 98 97 98 100 103 102 99 95 90 87 85 84 81 77 73 70 64 57 56 54 56 64 61 46 51 51 62 62 64 76 84 91 92 81 72
109 110 112 110 106 105 107 109 108 106 104 101 100 99 98 96 93 90 88 87 84 78 73 69 66 60 52 51 46 46 48 46 38 34 41 54 49 47 50 52 51 66 96 62
113 112 115 116 116 115 111 112 113 112 111 110 106 102 98 96 95 91 86 82 80 75 69 64 59 52 49 48 45 60 62 43 27 31 42 44 42 40 46 46 46 46 49 40
128 131 132 131 129 124 118 115 115 115 113 112 111 111 107 102 95 89 87 84 81 76 69 62 53 46 44 35 22 36 51 58 46 44 46 37 33 34 37 37 38 46 50 48
132 135 135 132 128 124 122 120 121 118 116 116 115 110 106 102 99 95 91 89 83 72 60 54 45 40 45 35 16 15 27 38 42 42 45 37 25 28 30 30 29 34 40 43
132 129 125 125 124 123 119 117 116 115 114 114 112 107 104 104 102 98 96 90 82 72 56 47 37 43 47 31 8 17 32 38 42 41 38 35 31 33 32 29 27 27 25 26
119 120 120 118 113 110 110 112 114 115 116 115 112 109 105 103 102 97 90 82 71 62 54 47 47 45 37 18 359 19 34 37 39 39 37 35 34 32 32 29 28 28 27 25
111 115 117 113 108 108 110 110 111 110 111 111 110 109 106 102 99 95 95 90 72 51 49 58 50 39 26 355 338 24 36 34 34 36 37 35 34 30 30 30 29 31 29 26
110 113 113 111 108 106 105 105 106 106 106 106 107 108 107 106 104 96 84 81 79 44 44 60 52 30 3 344 16 36 35 34 34 36 37 33 32 33 31 29 29 28 29 28
108 108 109 109 109 109 106 103 103 101 101 101 100 97 94 90 92 100 96 80 73 48 54 62 38 12 351 358 35 41 38 35 35 35 36 34 31 30 29 27 27 28 26 23
106 107 109 113 111 107 103 99 97 97 98 98 96 92 92 94 88 88 98 94 70 60 72 71 33 5 347 22 42 46 42 32 30 32 33 35 36 35 33 32 31 29 26 23
107 109 113 118 116 115 116 117 113 108 104 100 99 93 85 84 89 89 91 96 96 80 90 88 47 0 18 36 40 44 47 39 30 27 32 32 36 38 34 32 31 29 26 22
103 108 107 105 106 113 116 114 114 112 104 99 96 89 86 87 89 91 91 92 89 85 85 85 69 41 38 42 47 47 48 50 39 37 40 40 37 34 28 25 30 29 25 25
109 108 105 102 98 95 100 102 103 100 96 94 93 89 90 90 91 87 84 83 83 76 72 71 68 58 48 48 53 52 48 47 45 40 38 38 35 32 33 28 27 27 24 26
Height
1425 1425 1429 1429 1427 1425 1426 1428 1433 1433 1435 1435 1435 1438 1439 1441 1443 1445 1447 1449 1452 1454 1457 1460 1462 1465 1469 1471 1473 1476 1478 1480 1483 1486 1489 1492 1495 1498 1500 1503 1506 1508 1510 1512
1431 1425 1426 1428 1425 1424 1423 1422 1425 1429 1436 1434 1436 1439 1440 1442 1443 1445 1448 1450 1452 1454 1456 1459 1461 1464 1467 1470 1472 1475 1477 1479 1482 1485 1488 1490 1493 1496 1499 1501 1504 1506 1508 1510
1436 1427 1426 1433 1424 1422 1421 1420 1424 1432 1435 1434 1437 1440 1443 1443 1444 1447 1449 1451 1452 1454 1456 1459 1460 1462 1466 1469 1471 1474 1477 1479 1481 1484 1487 1489 1492 1494 1497 1499 1502 1504 1506 1508
1434 1437 1448 1428 1415 1415 1420 1423 1423 1428 1432 1436 1441 1444 1445 1446 1446 1449 1450 1452 1453 1454 1456 1458 1460 1463 1466 1469 1471 1473 1476 1478 1481 1483 1486 1488 1491 1493 1495 1497 1499 1501 1503 1504
1437 1440 1436 1426 1419 1420 1424 1429 1428 1431 1435 1439 1442 1445 1447 1448 1449 1450 1451 1453 1454 1455 1456 1458 1460 1462 1465 1468 1470 1473 1475 1477 1480 1483 1485 1487 1489 1491 1494 1496 1497 1499 1500 1502
1436 1444 1446 1437 1425 1423 1427 1436 1434 1435 1438 1440 1441 1446 1451 1451 1451 1451 1453 1454 1455 1456 1457 1459 1461 1463 1465 1468 1470 1472 1475 1477 1480 1482 1484 1486 1488 1490 1492 1494 1496 1497 1499 1500
1435 1440 1437 1433 1428 1426 1438 1443 1439 1439 1440 1442 1444 1448 1452 1452 1453 1454 1455 1457 1457 1458 1459 1461 1463 1464 1466 1469 1471 1473 1475 1477 1480 1482 1484 1486 1487 1489 1492 1493 1495 1496 1497 1498
1434 1442 1446 1435 1432 1436 1442 1440 1440 1441 1443 1445 1446 1449 1452 1453 1455 1457 1458 1459 1460 1461 1462 1464 1465 1466 1468 1470 1473 1475 1476 1477 1479 1482 1484 1486 1487 1489 1491 1492 1494 1495 1496 1496
1436 1442 1440 1439 1440 1441 1442 1442 1443 1443 1445 1446 1448 1451 1454 1456 1458 1460 1461 1462 1463 1464 1465 1467 1469 1469 1470 1473 1475 1476 1478 1479 1481 1483 1484 1486 1488 1489 1491 1492 1494 1494 1494 1495
1437 1438 1440 1441 1442 1442 1443 1443 1444 1445 1446 1447 1450 1453 1456 1459 1461 1462 1464 1465 1466 1467 1468 1470 1472 1473 1474 1476 1478 1479 1480 1482 1483 1485 1486 1487 1489 1490 1491 1492 1493 1493 1494 1494
1440 1441 1441 1444 1444 1444 1444 1445 1446 1447 1448 1450 1452 1456 1459 1462 1464 1466 1468 1469 1470 1471 1473 1474 1476 1477 1479 1480 1481 1482 1484 1485 1487 1488 1489 1489 1490 1492 1492 1493 1494 1494 1495 1494
1442 1443 1444 1447 1447 1446 1446 1447 1448 1449 1452 1455 1456 1460 1463 1466 1469 1470 1472 1473 1475 1476 1477 1479 1481 1482 1483 1484 1484 1485 1487 1489 1490 1490 1491 1492 1493 1493 1494 1494 1495 1495 1496 1496
1441 1443 1445 1449 1450 1450 1450 1451 1452 1454 1456 1459 1462 1464 1466 1470 1473 1474 1476 1478 1479 1481 1482 1484 1485 1486 1487 1488 1488 1489 1490 1491 1492 1493 1494 1495 1495 1495 1495 1496 1496 1496 1496 1496
1443 1445 1448 1451 1453 1454 1454 1456 1457 1459 1462 1464 1466 1469 1472 1474 1477 1479 1481 1483 1484 1486 1487 1488 1488 1490 1491 1491 1492 1492 1494 1495 1495 1496 1497 1497 1497 1498 1497 1497 1497 1497 1497 1496
1446 1448 1450 1453 1456 1458 1459 1460 1462 1465 1467 1469 1472 1474 1476 1479 1482 1484 1486 1487 1488 1489 1491 1492 1493 1494 1494 1495 1495 1496 1497 1497 1498 1498 1499 1499 1499 1499 1499 1499 1499 1499 1498 1497
1449 1452 1454 1457 1459 1462 1463 1465 1467 1470 1472 1475 1477 1480 1482 1484 1486 1488 1490 1491 1492 1494 1495 1496 1496 1497 1498 1498 1498 1499 1499 1499 1500 1500 1501 1501 1501 1501 1501 1501 1501 1500 1499 1498
1452 1455 1457 1460 1463 1465 1467 1469 1472 1474 1477 1479 1482 1484 1487 1489 1491 1493 1495 1496 1497 1498 1499 1499 1500 1500 1501 1501 1501 1502 1502 1502 1502 1502 1502 1502 1502 1502 1502 1502 1502 1501 1500 1499
1454 1457 1460 1462 1465 1468 1471 1473 1476 1478 1481 1484 1486 1489 1491 1493 1495 1497 1499 1500 1501 1502 1502 1503 1503 1503 1503 1503 1503 1504 1504 1504 1504 1504 1503 1503 1503 1503 1503 1503 1502 1502 1501 1500
1456 1460 1463 1466 1468 1471 1474 1477 1480 1482 1485 1488 1490 1492 1494 1496 1498 1500 1501 1503 1504 1504 1505 1505 1505 1505 1505 1505 1505 1506 1506 1506 1505 1505 1505 1505 1505 1504 1504 1503 1502 1502 1501 1500
1459 1462 1465 1469 1472 1474 1477 1480 1483 1486 1489 1491 1493 1495 1498 1500 1501 1503 1504 1505 1506 1507 1507 1507 1507 1507 1507 1507 1507 1508 1507 1507 1507 1507 1506 1506 1505 1505 1504 1504 1503 1502 1501 1500
1462 1465 1468 1471 1475 1478 1481 1484 1486 1489 1492 1494 1496 1498 1500 1502 1504 1505 1506 1507 1508 1509 1509 1509 1509 1508 1509 1509 1509 1509 1509 1508 1508 1508 1507 1507 1506 1505 1505 1504 1503 1502 1501 1500
1465 1468 1471 1474 1477 1481 1484 1487 1490 1492 1495 1497 1499 1501 1503 1504 1506 1507 1508 1509 1510 1510 1511 1510 1510 1509 1509 1510 1510 1510 1509 1509 1509 1508 1508 1507 1506 1505 1505 1504 1503 1502 1501 1499
1469 1472 1475 1478 1481 1484 1487 1490 1493 1495 1497 1499 1501 1503 1504 1506 1507 1508 1510 1511 1511 1511 1511 1511 1510 1510 1510 1510 1510 1510 1510 1509 1509 1508 1508 1507 1506 1505 1505 1504 1503 1502 1501 1499
1473 1476 1479 1482 1485 1488 1490 1493 1495 1498 1500 1502 1503 1505 1506 1508 1509 1510 1510 1511 1511 1512 1512 1511 1511 1511 1511 1511 1511 1510 1510 1509 1509 1508 1508 1507 1506 1505 1504 1503 1502 1501 1500 1499
1476 1480 1483 1486 1489 1491 1494 1496 1498 1501 1502 1504 1506 1507 1508 1509 1510 1511 1512 1512 1512 1513 1513 1513 1512 1512 1512 1512 1511 1511 1510 1509 1509 1508 1507 1507 1506 1505 1504 1503 1502 1501 1499 1498
1480 1483 1486 1489 1492 1494 1497 1499 1501 1503 1505 1506 1508 1509 1510 1511 1512 1512 1513 1513 1513 1513 1514 1514 1513 1513 1513 1512 1512 1511 1511 1510 1509 1508 1507 1506 1506 1505 1504 1503 1502 1500 1499 1497
1484 1487 1490 1492 1495 1497 1499 1501 1503 1505 1506 1508 1509 1510 1511 1512 1513 1513 1513 1514 1514 1514 1514 1514 1514 1514 1513 1513 1512 1512 1511 1510 1509 1508 1508 1507 1506 1505 1504 1503 1502 1500 1499 1497